GW2366 Weather Reports


Display with metric or nautical units.
time (UTC)temp
F
wind
direction
speed
MPH
gust
MPH
rain 1hr
in
rain 24hr
in
rain mn
in
humidity
%
barometer
mb
20260509021710 66 29 2.0 2.0 0.00 0.01 0.01 78 1014.9
20260509021208 66 343 0.0 0.0 0.00 0.01 0.01 77 1015.1
20260509020705 67 28 1.0 1.0 0.00 0.01 0.01 76 1014.7
20260509020202 67 38 1.0 1.0 0.00 0.01 0.01 76 1015.1
20260509015701 68 94 2.0 2.0 0.00 0.01 0.01 75 1014.9
20260509015158 68 8 1.0 1.0 0.00 0.01 0.01 75 1015.0
20260509014654 68 48 1.0 1.0 0.00 0.01 0.01 74 1014.9
20260509014150 68 45 1.0 1.0 0.00 0.01 0.01 73 1014.9
20260509013648 69 69 2.0 2.0 0.00 0.01 0.01 73 1015.0
20260509013144 70 32 1.0 1.0 0.00 0.01 0.01 72 1014.8
20260509012640 70 1 0.0 0.0 0.00 0.01 0.01 72 1015.1
20260509012137 70 315 0.0 0.0 0.00 0.01 0.01 71 1015.1
20260509011635 70 50 1.0 1.0 0.00 0.01 0.01 72 1015.0
20260509011132 69 258 0.0 1.0 0.00 0.01 0.01 71 1015.1
20260509010630 69 265 0.0 1.0 0.00 0.01 0.01 71 1015.2
20260509010126 69 68 2.0 2.0 0.00 0.01 0.01 72 1015.4
20260509005624 69 261 1.0 1.0 0.00 0.01 0.01 71 1015.1
20260509005120 69 226 1.0 1.0 0.00 0.01 0.01 71 1015.3
20260509004616 69 280 1.0 1.0 0.00 0.01 0.01 71 1015.2
20260509004113 70 209 1.0 2.0 0.00 0.01 0.01 70 1015.1
20260509003612 71 66 1.0 1.0 0.00 0.01 0.01 70 1015.2
20260509003109 71 94 3.0 3.0 0.00 0.01 0.01 70 1015.2
20260509002606 71 72 2.0 2.0 0.00 0.01 0.01 69 1015.3
20260509002103 72 109 2.0 2.0 0.00 0.01 0.01 66 1015.5
20260509001601 72 213 1.0 2.0 0.00 0.01 0.01 66 1015.3
20260509001056 72 43 1.0 1.0 0.00 0.01 0.01 66 1015.3
20260509000555 72 137 2.0 2.0 0.00 0.01 0.01 66 1015.5
20260509000050 72 215 1.0 2.0 0.00 0.01 0.01 66 1015.5
20260508235548 72 177 2.0 2.0 0.00 0.01 0.01 67 1015.4
20260508235044 73 215 1.0 2.0 0.00 0.01 0.01 66 1015.5
20260508234542 74 246 1.0 2.0 0.00 0.01 0.01 65 1015.5
20260508234039 73 232 1.0 2.0 0.00 0.01 0.01 64 1015.9
20260508233538 73 68 1.0 2.0 0.00 0.01 0.01 66 1015.9
20260508233035 73 357 1.0 2.0 0.00 0.01 0.01 66 1015.7
20260508232532 73 186 2.0 2.0 0.00 0.01 0.01 64 1015.9
20260508232029 73 32 2.0 2.0 0.00 0.01 0.01 68 1015.8
20260508231526 73 15 1.0 1.0 0.00 0.01 0.01 67 1015.8
20260508231023 73 90 3.0 5.0 0.00 0.01 0.01 67 1015.9
20260508230520 73 41 2.0 2.0 0.00 0.01 0.01 65 1016.0
20260508230017 74 64 3.0 3.0 0.00 0.01 0.01 65 1016.1
20260508225514 74 75 2.0 2.0 0.00 0.01 0.01 66 1016.0
20260508225010 74 42 3.0 3.0 0.00 0.01 0.01 65 1016.1
20260508224509 73 101 5.0 6.0 0.00 0.01 0.01 66 1016.2
20260508224005 73 73 2.0 2.0 0.00 0.01 0.01 68 1016.2
20260508223504 74 70 4.0 5.0 0.00 0.01 0.01 67 1016.3
20260508223001 75 52 3.0 3.0 0.00 0.01 0.01 65 1016.3
20260508222458 77 301 2.0 3.0 0.00 0.01 0.01 60 1016.3
20260508221954 78 291 1.0 1.0 0.00 0.01 0.01 58 1016.4
20260508221450 78 297 0.0 1.0 0.00 0.01 0.01 61 1016.6
20260508220946 77 284 2.0 2.0 0.00 0.01 0.01 59 1016.7
20260508220443 75 199 1.0 2.0 0.00 0.01 0.01 61 1016.7
20260508215939 76 8 1.0 1.0 0.00 0.01 0.01 61 1016.5
20260508215437 75 298 1.0 2.0 0.00 0.01 0.01 64 1016.7
20260508214933 74 229 2.0 2.0 0.00 0.01 0.01 64 1016.8
20260508214431 74 71 1.0 2.0 0.00 0.01 0.01 68 1016.7
20260508213926 74 262 1.0 2.0 0.00 0.01 0.01 66 1016.8
20260508213424 73 8 1.0 1.0 0.00 0.01 0.01 68 1017.0
20260508212919 72 251 3.0 5.0 0.00 0.01 0.01 68 1017.0
20260508212417 72 253 3.0 3.0 0.00 0.01 0.01 70 1017.1
20260508211912 72 257 3.0 3.0 0.00 0.01 0.01 71 1017.4
20260508211408 71 223 1.0 2.0 0.00 0.01 0.01 72 1017.0
20260508210906 71 126 3.0 3.0 0.00 0.01 0.01 71 1017.3
20260508210402 71 225 2.0 2.0 0.00 0.01 0.01 72 1017.2
20260508205858 71 167 3.0 3.0 0.00 0.01 0.01 72 1017.5
20260508205355 71 201 3.0 3.0 0.00 0.01 0.01 71 1017.4
20260508204851 70 175 2.0 2.0 0.00 0.01 0.01 73 1017.5
20260508204349 69 89 4.0 5.0 0.00 0.01 0.01 76 1017.6
20260508203844 69 348 1.0 1.0 0.00 0.01 0.01 75 1017.4
20260508203341 68 151 3.0 3.0 0.00 0.01 0.01 76 1017.5
20260508202836 68 87 1.0 1.0 0.00 0.01 0.01 80 1017.5
20260508202333 68 66 2.0 2.0 0.00 0.01 0.01 78 1017.5
20260508201831 68 61 3.0 5.0 0.00 0.01 0.01 77 1017.8
20260508201328 67 26 3.0 3.0 0.00 0.01 0.01 79 1017.8
20260508200824 67 91 5.0 6.0 0.00 0.01 0.01 77 1017.8
20260508200320 69 37 2.0 3.0 0.00 0.01 0.01 77 1017.7
20260508195811 68 41 1.0 1.0 0.00 0.01 0.01 78 1017.7
20260508195308 68 185 3.0 3.0 0.00 0.01 0.01 77 1017.9
20260508194804 68 293 1.0 2.0 0.00 0.01 0.01 77 1017.8
20260508194302 68 78 2.0 3.0 0.00 0.01 0.01 79 1017.8
20260508193759 68 303 0.0 1.0 0.00 0.01 0.01 80 1018.1
20260508193255 66 129 2.0 2.0 0.00 0.01 0.01 79 1018.2
20260508192751 66 133 4.0 5.0 0.00 0.01 0.01 79 1018.0
20260508192249 66 48 3.0 5.0 0.00 0.01 0.01 78 1017.9
20260508191746 67 257 0.0 0.0 0.00 0.01 0.01 77 1018.0
20260508191243 67 108 1.0 2.0 0.00 0.01 0.01 79 1018.1
20260508190740 66 229 3.0 3.0 0.00 0.01 0.01 77 1018.2
20260508190236 66 87 2.0 3.0 0.00 0.01 0.01 81 1018.2
20260508185733 65 233 3.0 3.0 0.00 0.01 0.01 80 1018.2
20260508185230 66 284 1.0 2.0 0.00 0.01 0.01 78 1018.0
20260508184727 65 288 1.0 1.0 0.00 0.01 0.01 81 1018.2
20260508184224 65 241 3.0 3.0 0.00 0.01 0.01 79 1018.4
20260508183721 64 267 0.0 1.0 0.00 0.01 0.01 81 1018.4
20260508183217 64 299 0.0 1.0 0.00 0.01 0.01 82 1018.3
20260508182713 63 235 1.0 2.0 0.00 0.01 0.01 83 1018.4
20260508182210 63 256 2.0 2.0 0.00 0.01 0.01 85 1018.4
20260508181706 62 304 2.0 2.0 0.00 0.01 0.01 86 1018.4
20260508181203 62 234 1.0 2.0 0.00 0.01 0.01 85 1018.3
20260508180700 61 285 1.0 2.0 0.00 0.01 0.01 86 1018.6
20260508180157 60 147 1.0 1.0 0.00 0.01 0.01 87 1018.5
20260508175654 60 245 1.0 1.0 0.00 0.01 0.01 87 1018.5
20260508175150 60 271 1.0 1.0 0.00 0.01 0.01 88 1018.6
20260508174648 59 333 1.0 2.0 0.00 0.01 0.01 91 1018.6
20260508174144 59 301 2.0 3.0 0.00 0.01 0.01 90 1018.6
20260508173641 58 337 0.0 0.0 0.00 0.01 0.01 92 1018.7
20260508173137 57 309 0.0 0.0 0.00 0.01 0.01 94 1018.7
20260508172635 56 257 2.0 5.0 0.00 0.01 0.01 96 1018.7
20260508172131 55 15 1.0 1.0 0.00 0.01 0.01 97 1018.8
20260508171628 54 260 1.0 1.0 0.00 0.01 0.01 98 1018.8
20260508171124 54 258 1.0 1.0 0.00 0.01 0.01 99 1018.7
20260508170621 54 334 0.0 0.0 0.00 0.01 0.01 99 1018.5
20260508170119 54 234 2.0 2.0 0.00 0.01 0.01 99 1018.4
20260508165616 53 186 1.0 2.0 0.00 0.01 0.01 99 1018.4
20260508165113 53 289 0.0 1.0 0.00 0.01 0.01 99 1018.6
20260508164609 53 279 0.0 0.0 0.00 0.01 0.01 99 1018.5
20260508164106 53 300 0.0 1.0 0.00 0.01 0.01 99 1018.5
20260508163603 52 270 2.0 2.0 0.00 0.01 0.01 99 1018.4
20260508163100 53 281 0.0 1.0 0.00 0.01 0.01 99 1018.5
20260508162557 52 112 2.0 2.0 0.00 0.01 0.01 99 1018.5
20260508162054 52 329 0.0 0.0 0.00 0.01 0.01 99 1018.5
20260508161551 52 292 0.0 1.0 0.00 0.01 0.01 99 1018.6
20260508161048 52 306 0.0 0.0 0.00 0.01 0.01 99 1018.6
20260508160547 52 296 0.0 0.0 0.00 0.01 0.01 99 1018.6
20260508160043 53 301 0.0 0.0 0.00 0.01 0.01 99 1018.6
20260508155540 53 21 0.0 0.0 0.00 0.01 0.01 99 1018.5
20260508155037 51 26 0.0 0.0 0.00 0.01 0.01 99 1018.5
20260508154534 51 333 0.0 0.0 0.00 0.01 0.01 99 1018.4
20260508154031 51 68 0.0 0.0 0.00 0.01 0.01 99 1018.2
20260508153528 51 27 0.0 0.0 0.00 0.01 0.01 99 1018.2
20260508153024 51 45 1.0 2.0 0.00 0.01 0.01 99 1018.3
20260508152521 50 131 1.0 2.0 0.00 0.01 0.01 99 1018.3
20260508152017 50 49 0.0 0.0 0.00 0.01 0.01 99 1018.2
20260508151514 50 89 1.0 2.0 0.00 0.01 0.01 99 1018.2
20260508151010 50 83 0.0 0.0 0.00 0.01 0.01 99 1018.1
20260508150508 50 56 0.0 0.0 0.00 0.01 0.01 99 1018.3
20260508150004 50 32 0.0 0.0 0.00 0.01 0.01 99 1018.1
20260508145500 50 27 0.0 0.0 0.00 0.01 0.01 99 1018.2
20260508144956 50 50 0.0 0.0 0.00 0.01 0.01 99 1018.3
20260508144454 50 317 0.0 0.0 0.00 0.01 0.01 99 1018.3
20260508143951 50 328 0.0 0.0 0.00 0.01 0.01 99 1018.2
20260508143449 50 282 0.0 0.0 0.00 0.01 0.01 99 1018.0
20260508142945 50 319 0.0 0.0 0.00 0.01 0.01 99 1017.7
20260508142442 50 323 0.0 0.0 0.00 0.01 0.01 99 1017.9
20260508141939 50 312 0.0 0.0 0.00 0.01 0.01 99 1017.8
20260508141436 50 308 0.0 0.0 0.07 0.01 0.01 99 1017.7
20260508140933 50 359 0.0 0.0 0.07 0.01 0.01 99 1017.8
20260508140430 50 25 0.0 0.0 0.00 0.00 0.00 99 1017.7
20260508135925 49 307 0.0 0.0 0.00 0.00 0.00 99 1017.8
20260508135422 49 17 0.0 0.0 0.00 0.00 0.00 99 1017.7
20260508134919 49 330 0.0 0.0 0.00 0.00 0.00 99 1017.6
20260508134415 49 2 0.0 0.0 0.00 0.00 0.00 99 1017.5
20260508133912 49 327 0.0 0.0 0.00 0.00 0.00 99 1017.5
20260508133410 49 322 0.0 0.0 0.00 0.00 0.00 99 1017.6
20260508132907 49 320 0.0 0.0 0.00 0.00 0.00 99 1017.6
20260508132405 49 319 0.0 0.0 0.00 0.00 0.00 99 1017.4
20260508131901 49 319 0.0 0.0 0.00 0.00 0.00 99 1017.7
20260508131356 49 353 0.0 0.0 0.00 0.00 0.00 99 1017.6
20260508130854 49 320 0.0 0.0 0.00 0.00 0.00 99 1017.5
20260508130350 49 316 0.0 0.0 0.00 0.00 0.00 99 1017.6
20260508125846 49 286 0.0 0.0 0.00 0.00 0.00 99 1017.5
20260508125342 49 273 0.0 0.0 0.00 0.00 0.00 99 1017.6
20260508124841 49 32 0.0 0.0 0.00 0.00 0.00 99 1017.4
20260508124338 49 306 0.0 0.0 0.00 0.00 0.00 99 1017.5
20260508123836 49 335 0.0 0.0 0.00 0.00 0.00 99 1017.3
20260508123334 49 22 0.0 1.0 0.00 0.00 0.00 99 1017.4
20260508122830 49 338 0.0 0.0 0.00 0.00 0.00 99 1017.4
20260508122327 49 48 2.0 2.0 0.00 0.00 0.00 99 1017.3
20260508121824 49 7 0.0 1.0 0.00 0.00 0.00 99 1017.3
20260508121323 49 343 0.0 0.0 0.00 0.00 0.00 99 1017.2
20260508120820 49 16 0.0 0.0 0.00 0.00 0.00 99 1017.4
20260508120318 49 9 1.0 2.0 0.00 0.00 0.00 99 1017.4
20260508115815 49 13 0.0 0.0 0.00 0.00 0.00 99 1017.4
20260508115312 49 320 0.0 0.0 0.00 0.00 0.00 99 1017.2
20260508114809 49 335 0.0 0.0 0.00 0.00 0.00 99 1017.4
20260508114306 49 45 0.0 0.0 0.00 0.00 0.00 99 1017.2
20260508113802 49 90 0.0 0.0 0.00 0.00 0.00 99 1017.2
20260508113301 49 340 0.0 0.0 0.00 0.00 0.00 99 1017.5
20260508112756 49 25 0.0 0.0 0.00 0.00 0.00 99 1017.5
20260508112254 49 23 0.0 0.0 0.00 0.00 0.00 99 1017.4
20260508111749 49 337 0.0 0.0 0.00 0.00 0.00 99 1017.3
20260508111247 49 44 1.0 2.0 0.00 0.00 0.00 99 1017.4
20260508110744 49 17 0.0 1.0 0.00 0.00 0.00 99 1017.2
20260508110241 49 11 0.0 0.0 0.00 0.00 0.00 99 1017.5
20260508105736 49 7 1.0 1.0 0.00 0.00 0.00 99 1017.3
20260508105233 49 4 0.0 0.0 0.00 0.00 0.00 99 1017.5
20260508104730 49 330 0.0 0.0 0.00 0.00 0.00 99 1017.6
20260508104227 49 339 0.0 0.0 0.00 0.00 0.00 99 1017.6
20260508103725 49 39 1.0 1.0 0.00 0.00 0.00 99 1017.3
20260508103221 49 3 0.0 1.0 0.00 0.00 0.00 99 1017.5
20260508102718 49 24 0.0 1.0 0.00 0.00 0.00 99 1017.3
20260508102216 49 339 0.0 0.0 0.00 0.00 0.00 99 1017.4
20260508101713 49 340 0.0 0.0 0.00 0.00 0.00 99 1017.4
20260508101211 49 351 0.0 0.0 0.00 0.00 0.00 99 1017.4
20260508100708 49 283 0.0 0.0 0.00 0.00 0.00 99 1017.4
20260508100206 49 283 0.0 0.0 0.00 0.00 0.00 99 1017.5
20260508095702 49 283 0.0 0.0 0.00 0.00 0.00 99 1017.6
20260508095200 49 283 0.0 0.0 0.00 0.00 0.00 99 1017.4
20260508094656 49 283 0.0 0.0 0.00 0.00 0.00 99 1017.4
20260508094153 49 283 0.0 0.0 0.00 0.00 0.00 99 1017.7
20260508093650 49 284 0.0 0.0 0.00 0.00 0.00 99 1017.7
20260508093148 49 301 0.0 0.0 0.00 0.00 0.00 99 1017.6
20260508092644 49 341 0.0 0.0 0.00 0.00 0.00 99 1017.3
20260508092143 49 341 0.0 0.0 0.00 0.00 0.00 99 1017.3
20260508091640 49 341 0.0 0.0 0.00 0.00 0.00 99 1017.6
20260508091137 49 342 0.0 0.0 0.00 0.00 0.00 99 1017.4
20260508090635 49 342 0.0 0.0 0.00 0.00 0.00 99 1017.5
20260508090132 49 352 0.0 0.0 0.00 0.00 0.00 99 1017.3
20260508085628 49 335 0.0 0.0 0.00 0.00 0.00 99 1017.4
20260508085126 49 350 0.0 1.0 0.00 0.00 0.00 99 1017.4
20260508084622 49 309 0.0 0.0 0.00 0.00 0.00 99 1017.4
20260508084119 49 267 0.0 1.0 0.00 0.00 0.00 99 1017.4
20260508083616 50 26 1.0 1.0 0.00 0.00 0.00 99 1017.4
20260508083114 50 356 0.0 0.0 0.00 0.00 0.00 99 1017.4
20260508082609 50 300 0.0 0.0 0.00 0.00 0.00 99 1017.4
20260508082107 49 291 0.0 1.0 0.00 0.00 0.00 99 1017.4
20260508081604 49 0 0.0 0.0 0.00 0.00 0.00 99 1017.4
20260508081100 50 70 1.0 1.0 0.00 0.00 0.00 99 1017.4
20260508080558 50 69 2.0 2.0 0.00 0.00 0.00 99 1017.3
20260508080055 50 71 0.0 1.0 0.00 0.00 0.00 99 1017.4
20260508075551 50 324 0.0 0.0 0.00 0.00 0.00 99 1017.5
20260508075049 50 7 0.0 1.0 0.00 0.00 0.00 99 1017.4
20260508074547 50 313 0.0 0.0 0.00 0.00 0.00 99 1017.4
20260508074043 50 323 0.0 0.0 0.00 0.00 0.00 99 1017.4
20260508073540 50 282 0.0 0.0 0.00 0.00 0.00 99 1017.3
20260508073038 50 345 0.0 0.0 0.00 0.00 0.00 99 1017.5
20260508072533 50 302 0.0 1.0 0.00 0.00 0.00 99 1017.7
20260508072031 50 358 0.0 1.0 0.00 0.00 0.00 99 1017.5
20260508071529 50 31 1.0 1.0 0.00 0.00 0.00 99 1017.4
20260508071026 50 5 0.0 0.0 0.00 0.00 0.00 99 1017.3
20260508070524 50 22 1.0 1.0 0.00 0.00 0.00 99 1017.4
20260508070022 50 21 1.0 1.0 0.00 0.00 0.00 99 1017.3
20260508065519 50 354 0.0 1.0 0.00 0.01 0.01 99 1017.1
20260508065018 50 66 1.0 2.0 0.00 0.01 0.01 99 1017.0
20260508064515 49 354 0.0 0.0 0.00 0.01 0.01 99 1017.2
20260508064013 48 286 0.0 0.0 0.00 0.01 0.01 99 1017.4
20260508063510 47 286 0.0 0.0 0.00 0.01 0.01 99 1017.3
20260508063007 47 286 0.0 0.0 0.00 0.01 0.01 99 1017.3
20260508062505 47 286 0.0 0.0 0.00 0.01 0.01 99 1017.3
20260508062001 47 286 0.0 0.0 0.00 0.01 0.01 99 1017.4
20260508061500 48 286 0.0 0.0 0.00 0.01 0.01 99 1017.3
20260508060955 48 286 0.0 0.0 0.00 0.01 0.01 99 1017.3
20260508060453 48 285 0.0 0.0 0.00 0.01 0.01 99 1017.3
20260508055949 48 286 0.0 0.0 0.00 0.01 0.01 99 1017.2
20260508055446 48 286 0.0 0.0 0.00 0.01 0.01 99 1017.4
20260508054942 48 286 0.0 0.0 0.00 0.01 0.01 99 1017.2
20260508054439 48 286 0.0 0.0 0.00 0.01 0.01 99 1017.5
20260508053936 49 286 0.0 0.0 0.00 0.01 0.01 99 1017.3
20260508053433 49 286 0.0 0.0 0.00 0.01 0.01 99 1017.4
20260508052931 49 286 0.0 0.0 0.00 0.01 0.01 99 1017.3
20260508052428 49 285 0.0 0.0 0.00 0.01 0.01 99 1017.3
20260508051924 49 285 0.0 0.0 0.00 0.01 0.01 99 1017.4
20260508051420 49 288 0.0 0.0 0.00 0.01 0.01 99 1017.4
20260508050916 49 288 0.0 0.0 0.00 0.01 0.01 99 1017.3
20260508050413 50 288 0.0 0.0 0.00 0.01 0.01 99 1017.3
20260508045909 50 289 0.0 0.0 0.00 0.01 0.01 99 1017.2
20260508045407 50 289 0.0 0.0 0.00 0.01 0.01 99 1017.2
20260508044904 50 288 0.0 0.0 0.00 0.01 0.01 99 1017.3
20260508044402 50 288 0.0 0.0 0.00 0.01 0.01 98 1017.3
20260508043857 50 283 0.0 0.0 0.00 0.01 0.01 98 1017.3
20260508043354 50 282 0.0 0.0 0.00 0.01 0.01 98 1017.3
20260508042851 50 273 0.0 0.0 0.00 0.01 0.01 98 1017.0
20260508042348 51 282 0.0 0.0 0.00 0.01 0.01 98 1017.0
20260508041845 51 290 0.0 0.0 0.00 0.01 0.01 98 1017.0
20260508041341 51 291 0.0 0.0 0.00 0.01 0.01 98 1016.9
20260508040838 51 291 0.0 0.0 0.00 0.01 0.01 97 1016.9
20260508040335 51 305 0.0 0.0 0.00 0.01 0.01 97 1016.9
20260508035832 51 293 1.0 1.0 0.00 0.01 0.01 96 1016.8
20260508035324 51 279 0.0 0.0 0.00 0.01 0.01 96 1016.8
20260508034821 52 277 0.0 1.0 0.00 0.01 0.01 96 1016.5
20260508034318 52 281 0.0 0.0 0.00 0.01 0.01 96 1016.6
20260508033815 52 282 0.0 0.0 0.00 0.01 0.01 95 1016.3
20260508033313 53 282 0.0 0.0 0.00 0.01 0.01 94 1016.5
20260508032810 53 282 0.0 0.0 0.00 0.01 0.01 94 1016.5
20260508032308 54 282 0.0 0.0 0.00 0.01 0.01 94 1016.4
20260508031804 54 280 0.0 1.0 0.00 0.01 0.01 93 1016.3
20260508031301 55 301 0.0 0.0 0.00 0.01 0.01 92 1016.5
20260508030757 55 282 1.0 1.0 0.00 0.01 0.01 92 1016.2
20260508030255 56 279 0.0 1.0 0.00 0.01 0.01 91 1016.4
20260508025751 57 290 1.0 1.0 0.00 0.01 0.01 90 1016.3
20260508025248 57 288 1.0 1.0 0.00 0.01 0.01 89 1016.2
20260508024744 58 278 0.0 1.0 0.00 0.01 0.01 88 1016.2
20260508024241 59 243 1.0 2.0 0.00 0.01 0.01 86 1016.2
20260508023738 60 290 0.0 0.0 0.00 0.01 0.01 86 1016.2
20260508023236 61 243 1.0 2.0 0.00 0.01 0.01 84 1016.2
20260508022731 61 237 3.0 3.0 0.00 0.01 0.01 84 1016.2
20260508022228 62 295 0.0 0.0 0.00 0.01 0.01 84 1016.3